Погода в Пятигорске

Россия / Ставропольский край     44°02′21″N   43°04′15″E
темп.,
°C
ветер,
м/с
пор.,
м/с
влажн.,
%
обл.,
%
осадки,
мм/ч
давл.,
гПа
погр.,
м
15 апреля, чт
чт1500:00+7з118494 0.0 101812
03:00+6юз227832 0.0 101814
06:00+6ююз11745 0.0 101810
09:00+13всв11535 0.0 1017555
12:00+16ссв3340100 0.0 10161630
15:00+16св3337100 0.0 10161904
18:00+14всв2451100 0.0 1017285
21:00+11юв2263100 0.0 101899
16 апреля, пт
пт1600:00+9юв11706 0.0 101814
03:00+8ю22750 0.0 101916
06:00+8ю227385 0.0 101927
09:00+14вюв57517 0.0 1018825
12:00+17вюв66445 0.0 10171441
15:00+18вюв674499 0.0 10151475
18:00+15ююв3756100 0.4 1017374
21:00+12юз227599 0.7 101940
17 апреля, сб
сб1700:00+11юв227399 0.0 101822
03:00+9ссз2284100 0.0 101860
06:00+9сз3794100 0.1 1020482
09:00+9сз5693100 0.5 1022757
12:00+8ссз2388100 0.3 1023461
15:00+8ссв1186100 0.5 1023359
18:00+7юз0192100 1.9 1024121
21:00+7юв1290100 2.2 1024130
18 апреля, вс
вс1800:00+7юв258984 0.0 1022253
03:00+7ююв2589100 0.0 1021175
06:00+7юв3689100 0.0 1020231
09:00+11вюв5777100 0.0 1017629
12:00+14вюв5668100 0.0 1015740
15:00+14юв557099 0.7 1014639
18:00+13в2383100 1.6 1015268
21:00+10юв119719 3.1 101731
19 апреля, пн
пн1900:00+10ююв1192100 0.2 101615
03:00+10юз1181100 0.2 101510
06:00+11ю1174100 0.0 101410
09:00+15в2262100 0.0 1014302
12:00+19всв3256100 0.0 1013941
15:00+19всв4358100 0.4 10121147
18:00+14св1391100 2.7 1014185
21:00+13вюв3696100 2.9 1013400